Wind_Speed
44 44 46 46 45 44 44 45 44 43 42 42 42 41 39 36 34 34 34 34 32 31 29 26 27 31 34 37 37 29 26 33 33 31 29 25 24 25 23 23 25 26 26 28 29 30 32 32 31 32 32 31 29 27 24 20 17 14 13 11 10 12 11 8 8 7 8 9 9 9 8 9 9 9 8 8 8 8 9 9 10 10 10 10 10 10 10 10
44 43 45 45 44 45 44 44 43 42 42 42 43 43 41 38 35 35 35 34 32 30 28 26 26 27 28 31 33 30 27 30 31 30 25 22 24 25 24 25 27 27 28 30 30 31 32 32 32 33 33 31 30 27 24 20 17 15 13 10 9 13 12 9 8 8 9 10 9 9 9 9 9 9 9 9 8 9 9 8 9 9 9 9 9 10 10 11
43 43 45 45 45 45 44 43 43 42 41 42 44 45 42 39 36 35 36 34 32 30 27 25 24 23 22 23 27 31 30 28 28 25 20 20 23 24 25 26 28 28 29 30 30 31 31 31 32 33 33 31 30 28 24 20 17 15 13 10 11 13 11 9 9 8 9 9 9 9 9 9 9 9 9 9 9 9 10 9 10 10 9 9 9 10 10 10
43 44 46 46 45 44 44 43 42 41 41 43 45 46 44 40 37 36 36 34 32 31 29 26 23 21 20 20 23 28 32 30 24 20 15 19 23 24 27 28 28 29 30 31 31 31 31 31 31 32 32 31 30 28 24 21 18 16 13 12 12 12 10 9 9 8 8 8 8 8 8 8 8 9 10 10 9 10 12 11 11 12 11 11 10 11 10 10
42 44 46 45 44 44 44 43 42 42 42 43 45 46 46 42 39 37 36 35 33 32 30 28 25 20 18 19 20 22 31 34 22 13 14 19 23 26 27 28 29 30 32 33 33 33 34 33 31 32 32 32 31 28 25 21 18 16 14 13 13 12 10 9 9 8 7 8 8 7 7 8 8 9 9 10 10 11 13 12 12 12 12 11 11 11 11 11
42 44 46 44 44 44 43 42 42 42 42 43 44 46 47 45 41 38 37 37 35 34 32 30 27 23 20 18 20 19 28 39 24 9 15 21 25 27 28 29 29 31 33 34 35 35 36 35 33 33 33 32 31 29 26 22 19 16 15 14 13 12 10 8 8 8 7 8 8 7 7 7 7 8 8 9 11 13 13 13 13 12 11 11 11 11 11 11
43 44 44 43 43 43 42 42 41 41 41 42 44 45 47 46 44 40 39 39 37 35 34 32 29 26 24 21 23 22 27 37 25 12 17 22 26 28 28 30 30 32 34 34 35 36 37 38 35 34 34 33 31 29 26 23 19 17 15 14 13 12 11 9 7 8 8 8 8 6 6 6 7 7 7 9 11 12 12 13 14 12 12 12 11 11 11 12
44 44 44 43 42 42 41 41 41 41 40 41 42 44 45 46 45 43 41 40 39 37 35 33 31 28 26 25 26 26 29 34 24 15 20 24 26 28 28 31 32 34 34 33 34 34 36 38 36 34 34 33 31 29 26 23 20 18 16 14 14 12 11 10 8 8 8 8 8 7 7 7 7 6 6 9 10 9 10 12 13 12 13 13 13 13 13 13
44 43 43 43 42 41 41 41 41 40 40 40 40 41 43 44 45 45 43 42 40 38 36 34 32 29 29 28 25 28 32 30 21 18 23 25 26 28 29 31 32 34 34 33 33 33 35 37 35 33 33 32 30 29 27 23 20 19 17 14 14 13 12 12 10 9 9 9 9 8 8 7 7 6 6 9 8 6 8 10 10 12 13 14 15 15 15 14
43 43 43 42 42 41 40 41 40 40 40 39 39 40 41 43 44 45 45 44 41 39 38 36 34 30 31 29 25 31 30 21 20 20 23 27 27 28 29 30 32 32 32 32 32 33 33 33 32 31 30 30 29 28 26 23 20 19 18 15 14 14 14 13 12 12 11 11 10 10 10 8 8 6 6 9 7 6 8 8 9 11 12 13 15 16 17 17
41 42 43 42 41 41 40 40 40 40 40 39 40 40 40 41 42 44 44 44 42 41 39 36 34 31 31 28 26 32 24 17 22 21 23 29 28 29 30 30 32 31 32 31 31 32 31 29 29 29 28 28 29 27 26 24 21 19 18 17 16 15 14 14 14 14 13 13 12 12 12 11 10 6 6 9 8 7 9 9 10 11 12 13 14 15 16 17
41 42 42 41 41 40 39 39 39 39 39 40 40 40 40 40 41 41 41 42 41 40 38 36 34 31 30 27 28 30 21 19 23 21 25 29 28 30 31 32 32 31 31 30 29 31 30 28 28 28 28 28 28 26 25 25 23 19 18 18 17 17 16 16 15 15 15 14 14 13 13 13 11 8 8 10 8 8 9 10 11 11 13 13 14 15 15 16
42 42 42 41 40 39 38 38 38 38 38 39 39 39 39 38 39 39 40 40 39 38 36 35 33 31 30 29 30 29 24 24 24 22 27 30 29 32 31 32 33 31 31 30 29 29 29 28 28 28 27 27 28 26 25 26 23 21 20 18 17 18 18 19 18 17 16 15 15 13 12 12 11 9 10 10 8 8 9 11 12 12 12 13 13 14 14 15
42 43 42 41 40 38 38 37 37 37 37 38 37 37 38 38 39 39 40 39 38 36 35 34 33 31 30 30 31 29 27 27 24 24 29 30 31 32 31 31 31 31 30 29 29 27 27 28 28 28 27 26 27 26 25 25 25 23 21 19 19 18 19 21 20 18 17 16 15 14 14 14 11 9 8 9 9 9 10 11 12 13 12 13 13 13 14 14
43 43 42 41 40 38 38 37 37 37 36 37 36 36 37 38 38 39 38 38 37 36 34 34 33 32 32 32 32 30 29 29 25 24 30 31 31 31 31 31 30 30 29 28 28 27 27 28 28 28 28 26 26 26 25 24 26 25 20 20 23 20 19 22 20 19 19 17 16 14 15 15 13 12 9 9 9 9 11 12 13 14 13 13 13 13 13 13
44 43 42 41 40 39 37 37 36 36 36 36 36 37 37 38 38 38 38 37 36 35 34 34 33 32 32 32 33 32 31 30 26 25 30 32 32 32 31 30 30 29 28 27 27 27 27 27 28 29 29 28 27 27 25 23 25 26 23 22 25 24 21 21 19 19 19 17 17 16 15 13 11 12 11 11 11 10 12 13 14 15 15 14 14 13 13 13
44 42 41 40 39 38 37 37 37 36 36 37 37 38 38 38 38 38 37 37 36 35 33 32 31 29 29 31 34 33 32 30 27 26 30 32 31 32 31 30 30 30 29 28 27 27 27 28 29 29 29 29 28 28 26 24 26 27 26 25 24 24 24 21 19 18 18 18 17 17 19 16 12 11 11 12 12 12 13 13 14 15 16 15 15 14 14 14
44 42 41 40 39 38 37 37 36 36 36 38 39 39 39 39 38 38 38 37 36 34 33 31 32 30 29 33 36 34 32 30 27 26 30 32 31 31 31 29 29 29 29 28 29 29 28 29 29 28 29 29 30 31 29 28 30 29 28 28 25 23 23 22 20 17 17 18 18 19 20 17 15 14 13 12 13 14 14 13 13 14 15 16 15 16 16 16
44 43 41 40 39 37 36 36 36 37 38 40 42 41 41 40 39 38 37 39 39 38 37 37 38 35 30 35 37 33 31 30 27 27 30 32 31 31 30 28 28 28 30 31 31 30 30 30 30 30 31 31 31 31 31 30 29 28 26 27 26 23 21 21 19 18 17 17 18 18 19 17 16 16 16 15 15 14 14 13 13 14 15 15 15 15 16 16
44 43 42 40 39 37 35 36 36 39 41 43 45 45 46 45 43 42 40 40 40 40 39 38 39 35 28 32 35 33 32 31 28 28 30 31 31 30 30 29 28 28 30 31 33 32 31 31 33 34 32 31 29 27 28 28 25 24 22 21 22 22 20 19 18 19 18 17 18 18 19 18 16 16 16 17 17 15 14 14 14 15 15 15 16 15 15 15
44 42 42 40 39 37 35 36 38 41 43 44 45 47 48 49 49 48 47 43 40 39 37 35 36 33 26 27 33 32 31 31 28 27 29 31 30 30 30 30 30 30 31 31 32 32 32 33 34 33 30 28 28 27 28 27 23 21 20 18 18 19 19 18 17 18 17 18 18 19 20 19 17 16 16 18 19 17 15 15 15 16 16 17 17 17 16 15
45 43 42 40 38 38 37 38 40 43 45 46 46 47 46 46 44 44 46 44 40 38 34 33 35 34 26 24 30 31 31 31 28 27 29 31 31 30 31 32 32 32 32 31 31 31 31 33 33 30 29 28 28 28 28 26 21 19 19 18 17 19 19 18 17 17 17 17 17 18 20 19 17 16 17 18 20 19 18 17 16 16 17 18 18 18 18 16
45 44 42 41 39 38 38 40 43 45 47 48 48 46 44 43 39 37 41 40 38 36 31 30 33 34 26 21 28 31 31 31 30 29 30 32 32 31 31 32 32 31 32 32 32 32 31 31 30 28 28 29 28 27 26 25 22 19 18 18 19 20 19 17 17 17 16 16 16 18 20 20 17 17 18 18 20 20 19 18 17 17 17 18 19 19 19 18
45 45 43 41 40 39 40 42 45 47 47 47 47 44 43 41 35 34 38 36 34 33 30 27 30 33 24 18 26 31 31 31 29 29 31 32 32 31 31 31 31 31 31 32 32 32 31 29 29 28 27 28 28 27 26 24 23 22 20 20 20 19 17 16 15 15 15 15 16 16 16 18 18 17 18 18 19 20 19 19 19 18 17 18 19 20 19 19
46 45 44 42 40 40 41 44 46 47 47 47 47 44 42 39 32 31 34 32 30 30 29 27 28 31 23 17 24 30 30 30 28 28 30 32 32 32 31 29 30 31 31 31 30 29 29 26 28 30 29 29 29 28 27 25 24 23 22 22 19 16 15 14 13 13 12 12 14 13 9 9 12 14 16 18 19 19 19 19 19 19 18 18 18 19 20 20
47 46 45 43 42 42 43 46 46 46 47 46 46 43 40 38 31 29 32 28 27 29 30 28 28 32 26 17 22 28 27 28 27 26 28 31 31 32 31 31 31 31 30 30 28 27 28 26 26 29 29 28 29 27 26 25 24 21 21 21 18 16 15 14 14 12 9 8 10 11 8 4 5 9 12 15 17 18 18 18 18 19 19 19 19 19 19 20
47 46 46 44 43 43 44 45 45 47 47 46 46 42 38 36 29 29 28 16 18 28 30 29 29 32 29 20 21 28 26 27 29 26 28 30 31 31 31 32 33 31 31 30 27 26 29 28 25 27 28 27 27 26 25 25 22 20 19 19 16 15 14 13 13 12 10 8 9 10 10 7 7 10 12 14 14 15 16 16 15 16 17 18 18 19 19 20
47 46 46 46 45 44 42 42 44 47 46 45 44 39 37 34 28 30 24 6 11 27 29 30 27 28 32 24 21 28 27 28 31 29 28 30 31 32 31 31 32 31 31 31 30 28 29 29 25 24 27 27 27 26 24 24 22 20 18 16 14 13 12 12 11 11 10 8 9 11 11 7 9 13 14 15 16 15 16 16 15 15 16 16 17 18 19 19
48 47 47 47 46 45 42 42 43 43 43 43 41 36 34 31 27 27 16 3 15 28 29 31 28 28 34 28 23 27 28 28 32 32 30 30 30 32 31 30 29 28 29 30 31 29 27 28 26 23 24 27 27 25 24 23 22 20 16 15 15 14 12 11 10 10 9 8 9 12 12 8 8 13 15 15 17 19 19 17 16 16 15 16 17 18 18 19
48 48 47 48 47 46 45 44 43 42 42 41 38 35 32 29 29 22 7 8 22 28 31 33 31 30 34 34 28 26 27 27 31 33 32 32 31 31 30 28 26 25 27 28 27 26 24 25 26 25 22 23 24 24 23 21 20 18 16 16 16 13 11 10 9 8 6 7 9 12 14 10 6 9 14 17 18 19 20 19 18 18 17 17 17 18 18 18
49 48 48 49 48 47 46 44 44 44 42 41 38 36 33 30 29 16 3 15 26 28 34 35 33 33 34 37 34 29 28 27 29 32 33 34 33 32 31 29 27 24 24 27 26 24 22 21 24 25 23 20 20 22 21 20 21 19 18 19 15 10 7 6 6 7 5 4 7 12 15 13 9 7 9 14 18 18 18 18 19 20 20 20 19 19 18 18
49 49 49 49 47 47 45 43 45 44 41 41 38 38 38 30 23 17 12 19 21 26 39 39 38 38 34 35 35 32 31 27 28 31 33 35 35 34 33 32 33 28 22 26 26 22 20 20 21 23 23 20 18 20 21 20 22 21 20 21 14 6 4 5 4 4 5 4 5 10 11 12 16 15 10 11 14 15 15 16 17 19 20 20 19 18 17 16
47 49 49 49 47 46 45 43 44 43 40 41 39 41 41 24 17 27 28 24 19 26 39 40 39 40 35 35 35 34 33 28 28 30 31 34 35 35 34 31 35 32 27 29 28 22 17 16 20 22 22 23 21 23 26 25 25 25 24 25 17 7 3 5 3 0 4 5 7 10 8 9 15 15 15 17 16 15 15 14 16 18 18 17 16 15 14 14
44 47 48 49 47 45 45 43 43 42 41 42 42 42 36 21 21 33 33 29 25 27 37 39 39 39 36 36 35 34 35 31 29 30 31 34 34 36 36 32 33 33 30 30 29 28 20 14 21 25 23 25 26 26 27 26 28 28 27 26 23 14 5 3 4 2 1 4 9 11 7 6 8 8 15 22 21 19 18 17 17 18 17 16 15 14 13 13
41 44 46 48 47 46 45 44 43 43 42 44 45 43 35 28 31 37 36 35 30 29 36 38 39 40 36 35 34 33 35 32 30 30 30 34 36 37 39 37 36 34 31 28 26 29 24 14 20 27 25 24 27 27 25 24 26 28 28 26 24 19 10 4 4 4 5 4 6 11 9 8 7 6 13 21 23 21 19 19 20 19 18 17 15 15 14 14
40 43 45 46 47 47 46 45 44 44 44 47 46 44 43 38 36 39 42 41 33 32 38 37 36 40 38 35 35 34 35 32 31 31 29 33 36 37 39 39 39 38 35 30 27 27 24 16 17 24 24 22 23 25 25 23 24 26 28 29 26 22 14 7 4 4 5 2 4 9 10 11 10 9 14 20 23 23 21 21 21 20 19 19 17 16 15 15
39 44 45 46 47 47 47 45 45 45 46 48 48 47 48 41 35 39 43 42 35 31 37 39 37 39 40 38 37 37 36 32 31 33 32 31 32 37 40 38 38 40 37 34 31 28 26 20 18 22 25 24 24 25 26 26 24 24 28 31 27 19 15 11 4 3 2 2 3 9 13 13 12 10 14 20 23 24 24 23 22 22 21 20 19 17 17 17
39 44 45 45 47 47 47 46 46 47 47 49 50 48 45 38 33 35 40 43 38 30 34 39 38 39 41 41 41 40 38 36 34 34 34 32 29 33 40 40 39 39 38 36 31 29 26 19 15 21 26 26 26 27 27 28 28 25 25 28 23 13 11 14 8 2 3 2 2 7 12 16 19 17 16 18 19 22 25 26 26 25 23 22 20 19 19 19
37 41 42 44 46 47 48 48 48 49 49 52 52 46 42 40 36 34 36 41 41 35 34 37 37 40 41 41 42 42 40 39 38 37 35 34 30 30 36 40 40 39 39 38 33 29 27 18 13 19 25 25 26 28 30 32 32 28 22 22 23 15 11 15 14 7 4 3 2 3 5 12 21 23 20 19 18 20 24 26 26 26 25 24 23 22 22 22
35 38 41 44 46 46 48 50 50 52 52 54 54 47 43 41 37 34 33 37 40 38 35 35 36 39 41 41 42 42 42 40 41 40 36 34 33 32 32 36 39 39 38 39 36 30 27 21 15 17 22 25 27 30 34 34 34 32 27 24 25 23 16 14 17 15 7 2 2 2 2 7 13 14 16 20 21 21 22 23 24 25 26 26 25 25 24 23
38 39 41 44 46 46 49 51 53 54 54 54 53 47 43 40 36 33 32 34 38 38 36 35 35 36 39 41 41 42 43 43 42 41 38 37 36 33 31 32 35 38 38 39 39 34 28 23 19 20 24 28 30 32 34 34 34 35 35 32 31 31 25 13 10 17 16 7 4 2 3 9 10 6 9 16 20 22 22 23 24 25 27 29 29 28 26 25
42 41 41 45 47 47 50 53 54 55 55 55 52 47 42 38 36 34 32 32 36 37 36 34 33 34 36 39 41 42 42 43 44 42 41 40 38 35 32 31 31 34 37 38 40 39 33 25 21 21 24 28 28 30 32 33 34 35 35 36 33 32 32 21 10 14 18 13 9 4 3 13 18 12 10 13 18 22 24 26 26 25 27 29 30 30 28 27
42 43 42 45 47 48 50 53 55 56 56 55 52 47 43 38 35 35 35 33 34 36 36 34 33 33 33 35 38 41 41 40 42 43 41 40 41 38 34 32 30 31 35 37 38 39 34 26 21 18 18 25 27 27 29 31 33 35 36 38 36 34 35 30 17 13 14 15 14 6 4 19 25 19 16 15 16 21 25 28 28 25 24 26 28 30 30 29
40 42 44 46 48 50 52 54 57 58 57 55 51 47 44 39 34 35 36 36 35 35 36 36 34 32 32 31 32 36 38 36 37 41 41 39 40 39 37 34 30 29 33 35 37 38 32 28 25 15 7 10 16 16 21 28 33 37 38 39 39 37 35 32 25 17 12 17 19 11 9 24 27 19 16 15 17 22 25 27 27 25 24 24 26 29 31 31
42 41 44 48 49 51 54 56 57 59 58 55 51 47 44 40 36 34 35 36 36 35 35 36 35 33 32 29 27 29 33 35 34 36 39 39 38 38 38 37 32 28 29 30 34 37 33 32 33 24 12 8 11 15 23 31 36 38 39 39 40 39 37 35 30 20 15 20 23 20 22 30 27 19 14 15 18 23 25 26 26 25 25 26 27 29 31 32
42 39 43 50 51 52 55 56 56 58 59 56 51 46 44 41 37 35 34 35 36 35 34 34 34 33 32 31 29 27 30 33 34 34 37 40 40 38 38 39 36 31 28 27 31 34 33 34 36 35 32 29 30 33 35 37 37 38 38 39 41 41 41 38 30 25 26 26 25 30 35 34 31 24 16 16 19 21 23 24 24 25 26 26 27 29 31 31
39 39 43 50 51 51 55 57 55 56 57 57 52 47 45 43 39 36 35 35 36 35 34 33 34 34 33 32 31 29 29 30 33 34 34 37 41 40 37 37 37 34 30 27 29 31 32 34 35 38 39 39 38 37 36 35 36 37 37 39 41 41 42 41 36 35 37 28 24 36 41 38 39 33 22 20 21 21 22 23 22 24 25 26 27 29 30 30
34 36 41 48 47 49 55 57 55 55 54 53 51 47 46 45 41 39 38 36 36 36 35 34 34 34 34 33 32 31 29 28 31 33 32 32 37 38 37 35 34 34 32 28 29 31 32 34 36 37 38 39 38 36 34 33 33 33 34 36 38 40 42 43 42 42 42 35 32 40 41 39 42 37 31 28 25 23 23 22 22 23 24 25 26 27 29 29
30 31 35 41 40 43 54 57 54 52 49 48 48 45 45 47 45 42 40 38 37 37 37 36 36 35 33 32 32 32 32 31 32 34 33 31 31 33 35 34 33 34 33 30 30 32 31 33 35 35 36 37 38 37 36 34 31 31 33 32 33 36 38 40 40 41 44 44 43 43 42 43 43 38 34 30 25 24 22 21 24 25 24 25 26 26 28 28
29 27 30 37 34 35 46 54 52 49 47 46 47 45 44 45 47 45 42 40 39 39 39 38 37 36 34 33 32 32 33 34 34 33 33 32 31 30 32 33 34 35 35 33 32 32 32 31 31 33 34 35 36 37 37 36 33 32 31 30 29 29 31 35 37 39 44 46 46 46 47 48 45 40 35 29 25 25 23 23 26 27 26 27 28 29 31 31
27 26 26 32 33 30 36 45 48 48 48 47 47 47 45 44 45 45 43 41 41 40 40 40 37 35 34 34 34 33 32 31 32 31 30 30 29 28 28 29 31 33 36 36 34 34 35 32 31 31 30 31 35 36 37 37 34 30 30 31 32 34 36 40 41 40 43 44 44 47 49 48 47 43 37 33 30 29 27 27 28 29 30 30 31 32 33 34
27 27 25 27 29 28 29 34 39 42 47 51 50 48 47 45 43 43 41 39 40 39 37 38 37 35 34 34 34 34 32 31 31 30 28 27 26 26 26 26 26 28 32 36 37 38 38 37 37 34 29 31 35 35 36 33 22 23 35 41 43 46 46 44 43 41 41 39 40 44 46 45 43 39 34 33 33 32 32 31 31 32 33 33 33 34 35 37
Wind_Direction
202 201 198 194 193 192 191 192 192 193 194 193 191 190 193 195 195 196 196 194 192 191 194 202 205 203 200 195 196 207 208 196 200 212 212 208 214 218 216 213 206 198 186 178 178 177 174 171 172 174 175 178 181 183 184 182 179 179 181 181 184 182 174 170 171 167 170 169 168 173 172 177 180 175 172 169 171 175 173 161 152 151 151 154 154 149 145 140
201 199 197 193 191 191 190 191 192 194 193 192 190 190 193 194 194 195 195 194 193 192 194 200 204 204 206 203 202 214 212 199 204 210 206 205 212 212 208 206 201 191 180 176 177 176 173 171 172 174 176 180 183 184 184 182 180 181 178 177 183 182 177 175 175 173 169 167 170 174 177 184 185 184 181 176 181 184 181 169 158 154 153 158 160 156 152 148
199 197 195 191 189 190 190 191 193 194 193 192 190 191 193 193 193 193 193 193 192 193 194 197 200 200 210 218 218 218 208 200 204 200 198 207 206 205 202 200 195 184 177 175 175 174 171 171 173 175 178 181 184 185 183 182 183 181 176 177 181 180 181 182 178 174 172 170 169 170 176 184 189 190 187 184 189 192 189 179 168 165 165 166 167 164 160 155
197 196 192 188 188 189 190 191 193 193 193 192 191 192 193 192 192 191 192 192 191 192 191 194 197 199 211 220 221 217 205 197 194 184 194 206 199 199 197 193 189 181 176 174 173 173 170 171 175 177 180 183 185 186 184 184 185 183 178 180 181 179 182 184 181 179 175 174 170 169 171 176 187 191 190 191 191 197 200 192 184 182 180 176 171 170 167 163
196 194 190 187 187 188 189 191 192 192 192 192 193 193 194 193 192 192 193 192 193 193 192 191 191 195 203 202 200 207 205 195 184 184 201 200 194 194 191 188 186 182 178 173 171 173 172 171 175 179 183 186 186 186 185 185 186 184 183 183 182 182 184 185 188 188 184 183 180 176 172 170 179 186 189 192 191 201 207 202 199 197 191 186 180 176 174 172
193 191 188 187 187 188 189 190 191 192 192 193 194 195 196 196 194 195 195 195 196 197 197 194 191 194 196 195 192 200 206 194 186 209 207 194 192 190 187 186 183 183 181 175 172 173 174 173 176 182 185 188 188 187 187 186 187 187 188 187 187 189 189 190 192 192 196 197 195 189 183 173 172 180 184 188 195 204 208 206 208 205 198 198 195 186 181 180
190 188 187 186 187 188 188 189 191 192 192 193 195 197 198 199 198 198 198 198 198 199 202 200 199 199 199 202 200 204 206 193 189 217 207 194 191 187 185 185 183 183 181 177 174 174 175 175 177 183 186 189 190 189 188 188 189 189 191 191 192 196 196 199 197 199 208 210 210 207 201 189 179 180 180 195 206 208 207 208 210 206 201 202 202 198 191 189
188 187 186 186 187 187 188 189 191 192 191 192 194 196 199 200 200 200 200 200 199 200 204 208 207 205 206 206 208 212 201 190 196 212 202 195 189 185 185 185 184 183 180 177 176 174 177 178 178 184 188 191 191 190 189 189 192 193 193 195 198 202 203 210 213 213 220 222 224 226 223 213 197 186 188 209 214 206 206 209 209 205 203 203 201 202 200 198
188 186 185 185 186 186 187 189 191 191 191 191 192 195 197 199 200 201 201 201 201 203 208 214 213 210 209 206 213 213 194 189 205 206 197 194 188 185 185 186 186 184 180 177 176 176 179 180 180 185 190 192 193 193 191 191 196 197 196 198 201 207 212 219 227 230 234 235 237 238 236 230 214 198 203 220 215 197 204 206 205 202 202 203 202 203 202 201
188 184 184 184 185 186 187 189 191 191 191 190 190 192 194 196 198 200 202 203 203 207 212 217 216 213 208 204 210 201 187 196 211 199 194 192 186 185 185 186 187 184 181 178 177 177 179 180 182 188 192 195 195 194 193 194 199 201 201 203 206 213 220 226 233 237 242 244 245 246 245 243 231 216 217 229 220 196 202 201 198 197 200 203 204 206 205 205
187 184 183 183 184 186 187 189 190 191 190 190 190 191 191 193 196 199 201 204 206 210 213 214 214 211 203 202 203 190 187 211 209 197 193 189 185 184 184 186 186 184 181 179 178 176 176 179 184 190 195 198 197 196 197 198 201 204 205 210 213 217 224 230 235 240 245 247 249 249 251 248 235 222 224 231 224 203 201 200 195 193 198 203 205 208 210 211
186 183 183 183 184 186 187 189 190 191 190 190 190 190 190 191 193 195 198 201 204 206 208 208 207 204 197 196 195 190 199 215 205 199 192 187 184 183 184 185 184 183 180 178 177 177 176 179 186 191 198 199 197 197 199 201 204 206 209 214 219 223 229 233 236 242 245 247 249 251 255 251 238 227 228 227 220 210 204 203 201 195 198 202 204 207 210 215
185 183 183 182 184 185 186 189 190 190 190 190 190 189 189 189 190 192 194 196 199 200 201 202 200 197 193 189 191 196 208 208 202 199 191 187 184 183 185 184 184 182 179 177 176 178 178 181 186 192 199 201 198 198 199 201 204 209 212 216 220 224 231 234 236 242 245 247 248 249 253 253 243 232 231 228 219 211 207 207 208 202 200 202 204 205 207 213
184 183 182 181 183 184 186 188 189 190 189 189 189 187 187 187 188 190 191 193 194 195 195 195 194 192 189 189 195 202 206 202 200 197 190 187 184 182 184 184 184 182 180 178 177 178 182 183 187 192 198 201 201 201 200 200 203 209 212 215 220 222 229 234 236 240 242 245 245 246 248 248 244 230 222 228 225 214 211 211 211 210 206 203 203 204 205 208
184 183 182 181 182 184 185 187 189 188 188 187 186 185 184 184 186 187 187 188 188 189 189 190 190 188 188 191 197 202 201 198 198 196 190 187 184 182 183 182 183 183 181 180 179 180 184 186 189 193 197 199 201 202 201 200 203 207 205 212 220 219 228 233 235 238 239 242 242 242 246 246 243 235 225 228 227 218 216 215 213 213 212 207 204 203 204 206
184 183 182 181 182 183 185 186 188 188 186 185 183 183 182 182 183 182 182 182 183 185 186 187 187 187 188 192 197 199 198 196 197 196 190 186 184 183 182 181 182 183 182 182 182 183 185 188 190 195 198 197 199 201 201 198 202 206 205 212 218 218 226 232 233 236 235 240 239 236 241 243 241 236 231 233 232 224 221 218 214 214 214 212 211 210 209 209
184 183 182 182 182 183 184 186 187 187 184 183 181 181 180 178 178 178 178 178 180 182 184 185 184 185 190 193 196 197 196 195 195 195 190 186 184 184 184 183 183 183 183 183 184 184 187 190 191 194 198 199 200 199 195 193 196 203 207 213 219 220 224 227 231 233 233 238 239 238 240 239 238 236 232 233 233 230 227 224 220 217 216 215 214 216 216 217
184 182 182 182 182 183 184 186 186 185 183 181 180 178 176 175 174 175 175 176 178 179 182 183 181 185 193 193 193 195 195 195 195 194 190 187 185 185 186 186 187 185 184 185 185 185 187 192 193 193 196 198 200 200 197 199 203 204 207 212 217 220 223 226 230 233 234 237 239 241 242 239 238 243 243 237 233 232 232 231 228 225 223 219 218 219 219 220
184 182 182 181 182 183 184 185 184 182 182 180 179 175 173 172 172 174 176 178 179 180 183 186 184 187 191 190 190 191 192 194 194 192 190 189 187 186 186 187 190 190 187 187 187 187 188 190 192 194 197 198 199 203 205 211 214 214 215 216 218 219 223 227 230 233 235 237 240 244 246 242 237 242 248 245 239 235 235 234 232 232 228 223 220 219 219 218
183 181 182 181 181 182 183 183 182 182 182 182 180 175 172 172 172 175 179 182 184 185 188 188 187 187 189 189 189 189 190 193 193 191 189 189 189 189 187 187 190 193 193 191 189 189 190 192 194 197 200 201 202 205 210 216 217 217 219 220 220 222 225 227 228 233 236 239 242 244 247 244 237 238 246 251 249 242 239 236 231 231 228 223 221 219 216 212
183 182 181 182 181 181 181 181 182 182 182 182 181 179 178 177 178 178 178 181 185 189 190 188 185 186 189 190 190 189 190 191 192 191 189 188 189 190 189 188 190 194 196 196 194 191 192 197 200 201 201 203 204 205 208 213 213 211 211 211 213 218 224 226 227 232 235 238 242 244 246 246 241 237 239 247 253 250 245 240 234 233 230 227 225 222 218 213
182 182 181 181 181 179 180 180 180 181 181 182 182 182 182 182 183 182 178 179 183 187 188 185 184 186 188 190 190 191 192 191 191 190 188 188 189 192 192 190 191 195 195 196 197 195 196 200 202 201 201 202 204 205 206 207 206 203 202 201 205 211 218 222 225 228 231 236 241 245 248 247 245 243 239 242 249 252 249 244 239 236 234 233 230 225 223 221
181 182 181 181 181 179 179 179 179 181 182 183 182 180 181 181 183 183 180 179 180 184 186 184 185 186 187 189 189 190 192 193 192 189 188 189 190 192 195 194 193 196 196 196 198 197 199 202 201 200 201 202 203 205 206 206 204 203 201 201 206 210 214 220 224 226 230 236 240 246 252 252 247 245 243 242 244 247 249 249 245 240 237 236 235 233 231 230
181 181 181 180 181 180 178 179 180 181 182 181 180 178 179 181 182 181 181 181 179 182 184 184 186 186 186 187 188 190 191 192 195 192 188 190 191 192 196 197 196 197 199 199 200 202 203 202 200 200 202 204 205 205 205 205 206 207 207 209 212 213 215 221 226 226 230 237 242 249 261 262 253 247 247 245 245 246 246 248 248 245 241 238 237 237 236 234
182 181 181 180 180 180 179 180 181 181 180 179 178 177 177 180 183 180 180 180 177 179 183 184 185 186 185 184 187 190 190 191 195 195 192 191 192 193 194 197 199 199 201 201 201 206 207 203 201 200 201 202 205 207 206 205 208 211 214 216 217 218 218 220 222 221 224 235 243 247 257 267 253 242 242 243 244 246 245 245 246 246 244 241 239 238 237 236
182 181 181 181 180 180 181 182 181 180 179 178 177 176 177 180 181 179 178 177 176 180 183 182 183 185 184 182 184 186 188 191 193 195 195 193 194 195 194 196 200 201 202 201 202 206 208 208 205 203 203 202 203 207 208 207 210 214 218 219 220 220 217 216 216 213 212 221 237 236 231 255 251 221 224 233 237 240 243 243 242 243 243 242 241 240 241 240
182 181 181 181 181 182 184 181 179 180 179 178 177 176 177 179 179 177 172 166 181 186 184 181 183 185 184 181 181 183 186 190 192 194 196 195 196 197 197 198 199 200 201 199 200 205 207 207 207 206 205 206 206 207 208 209 211 216 220 219 218 218 215 213 213 210 211 218 231 231 229 253 261 225 216 226 232 235 238 239 239 238 238 239 239 239 242 243
182 182 182 182 182 183 183 180 179 179 178 177 176 176 177 177 178 176 169 142 179 184 185 184 183 185 186 183 179 184 189 190 191 194 195 197 198 198 200 202 202 201 201 200 201 205 207 207 208 208 207 208 210 210 210 209 211 216 218 212 204 205 205 206 208 212 222 232 239 239 234 245 258 239 226 230 235 237 239 239 238 236 235 236 236 236 239 241
182 183 183 183 184 182 181 181 179 177 177 178 177 177 177 176 174 173 174 181 174 177 184 187 185 186 188 186 181 186 190 190 193 194 194 197 199 199 201 203 204 204 203 205 206 206 206 207 208 209 211 212 211 211 211 209 210 211 208 199 193 193 196 204 214 224 234 240 239 241 234 232 260 251 235 230 235 237 239 242 241 239 237 236 235 235 235 238
183 184 184 185 185 182 180 180 179 178 179 178 177 177 176 174 172 167 176 192 175 176 183 185 187 187 187 189 188 188 190 192 195 195 194 196 197 200 201 201 203 206 207 207 209 210 209 208 207 206 210 213 213 212 209 206 206 204 198 191 187 189 197 209 220 223 238 245 234 233 228 223 255 262 238 230 234 236 236 239 241 241 240 237 235 234 234 235
184 185 185 186 185 183 182 180 180 181 181 179 177 175 172 171 173 169 165 178 174 177 182 184 188 188 189 192 191 190 191 194 197 196 196 196 196 197 197 195 195 199 206 206 206 209 210 209 209 208 208 207 208 208 206 203 201 199 196 190 178 169 177 196 210 209 220 235 220 223 222 217 226 241 238 233 234 236 234 233 236 240 240 239 236 235 235 235
185 185 186 187 185 185 183 182 182 182 181 180 174 171 170 167 174 186 183 172 174 181 183 185 188 188 190 194 195 195 193 194 196 198 200 198 197 198 197 196 192 187 193 200 199 200 205 209 208 209 209 204 199 197 194 195 197 197 194 185 168 139 164 193 192 206 233 232 210 213 210 219 234 237 235 233 229 228 228 225 227 234 236 236 234 232 231 230
186 186 187 187 186 184 183 182 182 181 180 178 171 170 171 165 179 194 188 180 183 186 185 187 189 189 189 192 197 199 197 197 197 198 202 202 202 201 200 202 199 193 193 195 194 191 193 207 209 207 207 205 200 195 193 193 194 197 196 188 178 157 162 198 184 286 263 231 211 208 206 235 247 242 230 229 232 230 227 225 226 229 231 230 228 225 223 221
188 188 188 188 186 184 182 181 180 179 177 175 171 171 172 176 190 191 189 189 188 187 188 189 188 188 190 193 197 199 198 198 198 199 201 202 204 204 202 203 203 203 200 193 193 193 189 200 208 205 204 204 202 202 206 206 199 198 202 200 195 189 180 184 192 213 187 174 191 194 197 231 238 228 219 223 231 233 230 228 225 223 222 221 220 217 214 214
191 190 189 188 186 183 182 180 178 176 175 173 172 173 178 190 193 188 189 191 187 185 189 191 190 188 190 195 197 200 200 198 198 200 201 203 206 207 207 205 203 205 203 193 192 196 196 202 207 203 203 205 202 202 208 207 199 197 200 203 205 208 207 175 173 179 139 129 185 197 210 224 213 206 210 215 222 223 220 219 215 214 215 214 215 213 212 212
192 191 189 187 186 184 182 180 177 176 175 174 173 179 189 196 195 192 192 192 189 185 185 186 190 189 189 194 197 199 202 203 201 200 202 206 209 210 211 210 208 207 207 202 196 195 198 206 211 205 203 205 202 202 203 200 199 198 198 202 207 210 210 186 145 143 149 173 211 205 224 233 223 221 213 212 217 215 214 216 213 213 215 214 216 216 216 216
191 190 188 186 185 183 182 179 177 176 176 177 179 187 196 199 198 197 196 196 193 190 185 182 187 192 191 194 197 199 202 203 202 203 203 206 211 214 212 212 213 212 211 210 206 203 201 201 206 203 201 203 201 200 202 203 205 203 201 207 208 207 212 206 165 108 158 240 233 214 227 228 218 217 210 209 213 214 214 218 218 217 217 216 218 221 222 223
188 188 186 186 184 182 181 178 177 178 177 181 187 194 199 200 199 199 199 198 195 194 193 187 187 194 196 196 198 200 201 201 202 204 205 205 211 216 213 213 214 213 213 213 212 212 207 198 197 199 199 200 198 197 199 203 207 207 209 212 206 200 207 201 185 149 196 219 249 226 231 230 222 217 212 211 213 214 215 218 221 221 221 221 223 225 225 223
184 186 184 185 183 181 180 177 178 178 179 185 192 198 201 201 201 200 199 199 199 198 197 195 193 194 198 202 202 201 202 203 204 205 206 207 212 217 216 214 215 213 213 213 213 215 211 202 192 196 199 198 197 199 201 202 205 207 212 212 206 206 205 198 201 208 198 198 229 225 228 239 237 233 229 224 219 217 217 219 223 224 226 227 226 225 223 221
180 186 183 183 183 181 178 177 178 179 183 191 196 199 203 202 201 201 198 198 200 200 199 201 202 199 199 203 204 204 204 206 209 209 210 212 214 218 218 216 215 215 213 213 214 216 214 210 201 193 193 196 199 204 207 208 207 206 208 207 206 208 204 202 214 217 210 184 201 216 230 250 253 247 235 227 224 224 226 227 228 227 229 230 227 225 224 222
180 185 184 182 182 181 179 178 180 183 188 195 198 200 203 203 201 200 198 198 199 202 203 204 206 206 204 203 204 206 206 207 211 212 213 216 217 220 222 219 218 216 213 212 213 215 214 212 207 195 191 197 205 209 210 211 212 213 215 212 211 210 204 197 212 218 218 214 204 215 272 263 261 246 218 216 217 222 227 230 232 232 232 230 227 225 224 224
182 186 184 182 182 182 181 181 183 186 192 197 199 200 202 203 202 200 199 199 200 202 203 204 207 210 211 208 206 206 206 208 211 212 216 220 222 224 225 224 222 219 217 216 215 216 214 211 206 200 200 203 207 211 212 212 214 217 220 220 218 216 210 205 206 214 212 213 222 226 281 267 259 248 228 219 215 217 219 223 228 232 233 230 228 227 227 228
183 186 185 182 183 183 183 184 186 189 194 198 200 201 203 202 200 200 200 200 201 202 203 204 205 208 211 211 209 207 206 208 212 215 218 222 224 225 225 225 222 218 217 217 215 214 213 210 201 191 198 205 207 214 216 215 215 216 220 223 221 220 218 214 220 224 206 207 219 208 252 261 258 253 244 232 222 219 216 216 222 228 231 229 229 230 231 231
183 185 185 182 182 183 186 188 189 191 196 198 199 201 203 202 200 200 201 201 202 203 204 206 207 207 209 211 213 213 209 208 211 215 218 222 224 224 225 226 223 217 217 218 217 215 210 207 199 175 154 203 210 217 219 217 218 219 221 222 221 223 222 219 224 229 219 224 223 203 236 256 257 254 240 223 220 222 218 217 220 223 228 230 230 231 232 233
180 179 181 183 183 184 189 192 193 195 197 198 199 200 201 200 199 200 202 202 203 204 205 207 209 210 211 211 213 215 214 213 213 213 216 221 225 225 224 226 225 221 219 219 221 219 211 206 204 191 170 183 204 215 220 218 217 219 222 223 223 224 223 222 223 220 226 237 226 215 235 251 255 252 232 211 212 218 217 220 223 224 228 232 233 234 235 236
179 174 172 179 184 186 191 195 196 198 200 199 198 200 201 200 197 196 199 201 203 205 206 208 209 211 212 212 211 212 213 217 218 216 216 219 223 226 225 226 226 224 220 217 218 219 213 211 213 210 208 214 220 225 227 224 219 220 224 224 223 224 223 222 219 219 231 236 231 233 242 249 253 251 230 206 206 211 215 221 227 231 233 234 234 235 237 238
180 177 169 174 183 189 193 196 198 201 203 201 200 201 201 201 198 195 196 199 202 204 205 207 210 210 210 210 209 209 210 214 218 220 219 218 221 223 224 224 224 222 220 215 214 215 213 214 219 221 222 226 229 229 231 230 227 229 231 228 225 224 223 221 219 228 234 229 236 248 248 248 252 250 237 222 217 220 226 230 234 236 233 232 233 233 234 237
181 180 174 174 182 191 195 196 199 202 204 203 202 202 202 201 200 197 196 198 201 203 204 206 209 212 213 212 210 208 207 210 215 219 220 220 220 220 220 220 219 219 218 213 211 213 214 217 222 225 228 231 232 232 235 235 235 236 237 236 234 229 226 224 227 234 234 229 243 255 253 252 255 254 248 244 240 239 241 242 239 231 227 230 235 236 238 239
186 184 180 178 182 192 197 198 200 203 205 203 203 204 204 203 203 202 200 200 200 201 205 208 210 211 213 214 214 212 211 211 214 215 217 219 219 219 218 215 214 215 214 211 210 210 213 219 223 225 229 231 232 234 238 239 238 238 237 238 239 237 235 236 239 242 239 240 248 253 253 257 260 258 255 253 251 248 244 239 233 226 227 234 239 241 242 241
190 188 187 186 188 192 196 199 203 205 206 205 205 206 206 206 206 206 205 204 203 203 205 209 211 211 212 213 215 216 217 218 220 220 219 219 219 218 218 216 215 212 210 209 209 208 211 217 221 223 227 230 231 233 236 238 239 240 239 237 237 238 239 240 243 244 241 243 246 247 250 257 258 257 255 253 250 244 236 231 230 228 232 238 239 240 240 239
195 191 189 192 196 197 195 198 203 207 208 207 207 209 209 208 209 208 208 209 209 209 209 211 212 212 213 215 217 218 220 222 225 228 228 227 227 226 223 222 221 215 210 208 208 209 212 215 218 219 222 228 231 232 234 236 237 237 235 235 235 235 236 237 239 239 237 240 243 242 245 252 254 254 254 253 252 248 241 234 231 231 236 239 239 240 240 240
203 198 193 192 196 199 198 198 201 205 210 211 211 211 211 210 211 210 209 210 212 213 214 215 216 215 215 217 219 221 222 222 225 227 230 231 232 232 231 230 228 223 217 212 209 210 213 217 218 217 218 226 230 230 231 232 232 231 234 237 238 238 239 239 238 238 238 239 240 240 245 253 257 258 257 255 254 254 251 246 241 239 240 240 241 242 241 241
Height
3037 3040 3043 3047 3051 3056 3060 3064 3068 3071 3074 3078 3082 3087 3091 3094 3097 3100 3103 3106 3109 3111 3114 3116 3118 3121 3123 3125 3128 3131 3133 3135 3137 3138 3141 3145 3147 3148 3150 3151 3152 3153 3155 3157 3160 3163 3165 3167 3170 3173 3176 3179 3181 3183 3185 3186 3187 3188 3189 3190 3192 3192 3193 3194 3194 3195 3195 3195 3195 3196 3197 3197 3198 3199 3200 3200 3201 3202 3202 3202 3201 3202 3202 3203 3204 3204 3204 3205
3034 3038 3042 3045 3049 3054 3058 3062 3066 3069 3072 3076 3080 3085 3089 3092 3095 3098 3101 3105 3108 3110 3113 3116 3118 3120 3123 3125 3127 3129 3131 3134 3135 3137 3140 3143 3144 3145 3147 3148 3150 3152 3153 3156 3160 3163 3165 3167 3170 3172 3175 3178 3180 3182 3184 3185 3186 3187 3188 3190 3191 3192 3192 3193 3194 3194 3195 3195 3195 3196 3196 3197 3198 3199 3199 3200 3201 3201 3202 3202 3202 3202 3203 3203 3204 3204 3205 3205
3032 3036 3039 3043 3047 3052 3056 3060 3064 3067 3070 3074 3078 3083 3087 3091 3094 3097 3100 3103 3107 3109 3113 3116 3118 3121 3123 3125 3126 3127 3130 3132 3133 3136 3140 3140 3141 3144 3145 3147 3149 3151 3153 3156 3160 3163 3165 3168 3170 3172 3175 3177 3179 3181 3183 3185 3186 3187 3188 3190 3191 3191 3192 3193 3194 3194 3194 3195 3195 3196 3196 3197 3198 3198 3199 3199 3200 3201 3201 3202 3202 3202 3203 3203 3204 3204 3205 3205
3029 3033 3037 3041 3045 3050 3054 3058 3062 3066 3069 3072 3076 3080 3085 3089 3093 3096 3099 3102 3106 3109 3112 3115 3118 3120 3122 3123 3124 3125 3129 3131 3132 3135 3137 3138 3140 3142 3143 3146 3148 3150 3152 3155 3158 3161 3164 3166 3170 3172 3175 3177 3178 3181 3182 3184 3185 3187 3188 3189 3190 3191 3192 3193 3194 3194 3194 3195 3195 3196 3196 3197 3197 3198 3199 3199 3200 3201 3201 3201 3201 3202 3202 3202 3203 3204 3205 3205
3027 3031 3035 3039 3043 3048 3052 3056 3060 3064 3067 3070 3074 3078 3083 3087 3091 3095 3098 3101 3104 3108 3111 3115 3117 3120 3121 3122 3123 3124 3127 3130 3131 3133 3135 3136 3138 3140 3142 3145 3147 3149 3151 3153 3156 3160 3162 3164 3168 3171 3174 3176 3177 3179 3181 3183 3185 3186 3187 3189 3190 3191 3191 3192 3193 3194 3194 3195 3195 3196 3196 3196 3197 3198 3198 3199 3199 3200 3200 3201 3201 3201 3202 3202 3203 3203 3204 3205
3025 3029 3034 3037 3042 3046 3050 3054 3058 3061 3065 3068 3072 3076 3081 3086 3090 3094 3097 3100 3103 3107 3110 3114 3116 3118 3120 3122 3123 3124 3125 3127 3129 3131 3133 3135 3137 3139 3141 3144 3146 3149 3151 3152 3154 3158 3160 3163 3166 3170 3172 3174 3176 3178 3180 3183 3184 3186 3187 3188 3189 3190 3191 3192 3193 3193 3194 3194 3195 3195 3196 3196 3197 3197 3198 3198 3198 3198 3199 3200 3200 3201 3202 3202 3203 3203 3204 3205
3023 3028 3032 3036 3040 3044 3048 3052 3056 3060 3063 3066 3070 3075 3079 3084 3088 3092 3096 3099 3102 3106 3109 3112 3115 3116 3118 3120 3122 3123 3124 3127 3130 3132 3133 3134 3136 3138 3140 3143 3146 3148 3150 3152 3153 3156 3159 3162 3165 3168 3171 3174 3175 3178 3180 3182 3184 3185 3186 3187 3189 3190 3191 3192 3192 3193 3194 3194 3195 3195 3195 3196 3196 3197 3197 3197 3197 3198 3198 3199 3199 3200 3201 3202 3202 3203 3203 3204
3021 3026 3030 3034 3038 3042 3047 3051 3054 3058 3061 3065 3069 3073 3077 3082 3086 3090 3094 3098 3101 3104 3107 3110 3112 3115 3117 3119 3120 3122 3123 3127 3131 3132 3133 3134 3136 3138 3140 3142 3145 3147 3150 3152 3154 3157 3159 3161 3164 3168 3171 3173 3175 3177 3179 3181 3183 3184 3186 3187 3188 3189 3190 3191 3192 3193 3193 3194 3194 3195 3195 3195 3196 3196 3196 3196 3196 3197 3198 3198 3199 3199 3200 3200 3201 3202 3203 3203
3019 3023 3028 3032 3036 3041 3045 3049 3053 3056 3060 3064 3067 3071 3075 3080 3084 3088 3092 3096 3100 3103 3106 3108 3111 3113 3115 3117 3120 3121 3123 3127 3130 3131 3132 3134 3136 3138 3140 3142 3145 3147 3150 3152 3154 3156 3159 3161 3164 3168 3170 3173 3175 3177 3178 3181 3182 3184 3185 3186 3187 3188 3189 3190 3191 3192 3192 3193 3194 3194 3194 3195 3195 3195 3196 3195 3195 3196 3197 3197 3198 3198 3199 3200 3200 3201 3201 3202
3017 3021 3026 3030 3035 3039 3043 3048 3051 3055 3058 3062 3066 3069 3073 3077 3082 3086 3091 3095 3099 3102 3104 3106 3109 3111 3113 3116 3118 3120 3123 3126 3128 3130 3131 3133 3135 3137 3140 3143 3145 3148 3150 3151 3153 3155 3158 3162 3165 3169 3171 3173 3174 3176 3178 3180 3181 3183 3184 3186 3187 3188 3189 3190 3191 3191 3192 3192 3193 3193 3194 3194 3194 3195 3195 3194 3195 3195 3196 3196 3197 3198 3198 3199 3199 3200 3200 3201
3016 3020 3024 3028 3033 3037 3042 3046 3050 3053 3057 3060 3064 3067 3071 3075 3080 3084 3089 3093 3097 3100 3102 3105 3108 3110 3113 3115 3117 3121 3124 3125 3127 3128 3130 3132 3134 3137 3140 3142 3145 3147 3149 3151 3153 3155 3158 3162 3166 3169 3171 3172 3173 3175 3177 3178 3180 3182 3184 3185 3186 3187 3188 3189 3190 3190 3191 3191 3192 3192 3193 3193 3193 3194 3194 3194 3194 3194 3195 3195 3196 3197 3197 3198 3198 3199 3199 3200
3015 3018 3022 3027 3031 3036 3040 3045 3049 3052 3055 3059 3062 3066 3070 3074 3078 3083 3087 3091 3095 3098 3101 3104 3107 3109 3111 3114 3118 3122 3124 3124 3126 3127 3129 3131 3133 3135 3138 3141 3144 3147 3149 3151 3153 3155 3158 3161 3164 3167 3169 3170 3172 3174 3176 3177 3179 3181 3183 3184 3185 3186 3187 3187 3188 3189 3190 3190 3191 3192 3192 3192 3192 3193 3193 3193 3193 3193 3194 3194 3195 3195 3196 3197 3197 3198 3199 3199
3013 3017 3021 3025 3030 3034 3039 3043 3047 3051 3054 3057 3061 3065 3069 3073 3077 3082 3086 3089 3092 3096 3099 3102 3106 3108 3110 3113 3117 3120 3122 3123 3125 3126 3128 3130 3132 3134 3137 3140 3143 3145 3148 3150 3152 3155 3157 3160 3163 3166 3167 3169 3171 3172 3174 3176 3178 3180 3181 3183 3184 3185 3185 3186 3187 3188 3189 3189 3190 3191 3192 3191 3191 3191 3192 3192 3192 3193 3193 3193 3194 3194 3195 3196 3196 3197 3198 3198
3012 3016 3019 3024 3028 3033 3037 3042 3046 3049 3053 3056 3060 3064 3068 3072 3076 3080 3084 3087 3091 3094 3097 3101 3104 3106 3109 3112 3116 3119 3120 3122 3123 3125 3127 3129 3131 3134 3136 3139 3142 3144 3147 3149 3151 3153 3156 3159 3162 3164 3166 3168 3169 3171 3172 3174 3176 3178 3180 3181 3182 3183 3183 3184 3185 3186 3187 3188 3189 3190 3190 3190 3190 3190 3191 3191 3191 3192 3192 3192 3193 3194 3194 3195 3196 3196 3197 3197
3011 3014 3018 3022 3026 3031 3036 3040 3044 3048 3051 3055 3059 3063 3067 3070 3074 3079 3082 3086 3089 3092 3096 3100 3102 3105 3107 3111 3114 3116 3118 3120 3122 3124 3126 3128 3131 3133 3135 3138 3141 3144 3146 3148 3150 3152 3155 3158 3160 3162 3164 3166 3168 3170 3171 3173 3174 3176 3178 3179 3179 3181 3182 3182 3184 3185 3186 3187 3188 3189 3189 3188 3189 3189 3190 3190 3190 3191 3191 3191 3192 3192 3193 3194 3195 3195 3196 3197
3010 3013 3017 3021 3025 3029 3034 3038 3042 3046 3050 3054 3058 3062 3065 3069 3073 3077 3081 3084 3088 3091 3095 3098 3101 3103 3106 3108 3111 3114 3116 3118 3120 3123 3125 3127 3130 3132 3135 3137 3140 3143 3145 3147 3149 3151 3154 3156 3158 3160 3161 3163 3165 3167 3170 3172 3172 3174 3175 3176 3177 3179 3180 3181 3182 3183 3185 3186 3186 3187 3187 3187 3188 3188 3188 3189 3189 3189 3190 3190 3191 3191 3192 3193 3194 3194 3195 3196
3008 3012 3016 3020 3024 3028 3033 3037 3041 3045 3049 3053 3056 3060 3064 3068 3072 3076 3080 3083 3087 3090 3094 3097 3100 3103 3104 3106 3109 3111 3114 3117 3119 3122 3124 3126 3129 3131 3133 3136 3138 3141 3144 3146 3148 3150 3153 3154 3156 3157 3159 3161 3163 3165 3167 3168 3168 3170 3172 3173 3175 3177 3179 3180 3181 3182 3183 3184 3185 3186 3185 3186 3187 3187 3187 3187 3188 3188 3188 3189 3190 3190 3191 3191 3192 3193 3194 3194
3007 3011 3015 3019 3023 3027 3031 3035 3039 3044 3047 3051 3055 3058 3063 3067 3071 3075 3078 3082 3085 3089 3093 3095 3097 3100 3101 3103 3106 3110 3113 3116 3118 3121 3123 3125 3127 3130 3132 3135 3138 3140 3142 3145 3147 3149 3151 3152 3154 3156 3157 3158 3160 3162 3163 3164 3165 3168 3169 3171 3173 3175 3177 3178 3179 3180 3182 3182 3183 3184 3184 3185 3186 3186 3186 3186 3186 3186 3187 3188 3188 3189 3190 3190 3191 3192 3192 3193
3006 3010 3014 3017 3022 3026 3030 3034 3038 3042 3045 3049 3052 3056 3061 3066 3070 3074 3077 3079 3082 3084 3087 3089 3091 3093 3096 3100 3104 3108 3112 3115 3117 3119 3121 3124 3126 3129 3131 3134 3137 3139 3141 3143 3145 3147 3149 3151 3152 3153 3154 3155 3157 3160 3162 3164 3166 3168 3169 3170 3172 3174 3176 3177 3178 3179 3180 3181 3181 3182 3182 3183 3184 3184 3184 3185 3185 3185 3186 3186 3187 3187 3188 3189 3190 3190 3191 3192
3005 3009 3013 3016 3020 3025 3029 3033 3037 3040 3043 3046 3049 3052 3056 3060 3064 3069 3074 3077 3079 3081 3083 3086 3089 3093 3096 3100 3103 3106 3110 3113 3115 3118 3120 3122 3125 3128 3130 3133 3136 3139 3140 3141 3143 3145 3147 3149 3149 3149 3152 3155 3158 3161 3163 3164 3166 3168 3169 3170 3171 3173 3174 3175 3177 3177 3178 3179 3180 3180 3181 3181 3183 3183 3183 3183 3182 3183 3184 3185 3185 3186 3187 3187 3188 3188 3189 3190
3004 3008 3012 3015 3019 3023 3028 3032 3035 3038 3041 3045 3048 3050 3051 3053 3056 3059 3065 3072 3077 3081 3084 3087 3091 3094 3097 3100 3103 3106 3108 3111 3114 3116 3119 3121 3124 3127 3129 3131 3134 3136 3138 3140 3142 3144 3146 3146 3147 3149 3153 3156 3158 3160 3161 3163 3165 3167 3168 3169 3170 3172 3173 3174 3175 3175 3177 3178 3178 3179 3179 3179 3181 3182 3182 3181 3180 3181 3182 3183 3183 3184 3185 3185 3186 3187 3188 3189
3003 3007 3011 3015 3018 3022 3026 3030 3033 3036 3040 3043 3047 3050 3053 3056 3059 3061 3065 3069 3074 3079 3084 3087 3090 3093 3097 3099 3102 3105 3108 3110 3113 3115 3117 3120 3123 3125 3127 3129 3131 3134 3136 3139 3141 3143 3144 3144 3146 3150 3153 3155 3157 3158 3160 3162 3163 3165 3166 3168 3169 3170 3171 3172 3173 3174 3175 3176 3176 3177 3177 3178 3179 3180 3180 3179 3178 3179 3179 3180 3181 3182 3183 3183 3184 3185 3186 3187
3002 3006 3010 3014 3018 3021 3025 3028 3032 3035 3038 3041 3045 3050 3054 3059 3063 3067 3069 3071 3075 3079 3083 3086 3089 3093 3096 3098 3100 3103 3106 3109 3111 3113 3116 3119 3121 3124 3126 3128 3130 3133 3135 3137 3139 3141 3142 3143 3147 3150 3152 3154 3155 3157 3159 3161 3162 3164 3165 3166 3167 3168 3170 3170 3171 3173 3174 3174 3175 3175 3175 3175 3177 3177 3177 3177 3177 3176 3177 3178 3179 3180 3180 3181 3182 3182 3183 3184
3000 3005 3009 3013 3017 3020 3023 3027 3030 3033 3036 3041 3046 3050 3055 3060 3063 3067 3070 3073 3076 3079 3083 3086 3089 3092 3095 3097 3099 3102 3105 3109 3111 3113 3115 3117 3120 3123 3125 3128 3130 3133 3134 3136 3138 3140 3141 3143 3146 3149 3151 3152 3154 3156 3157 3159 3161 3162 3163 3165 3166 3167 3169 3169 3170 3172 3173 3173 3173 3174 3174 3173 3174 3175 3175 3175 3174 3174 3175 3176 3176 3177 3178 3179 3179 3180 3181 3181
2999 3003 3008 3012 3015 3018 3022 3024 3027 3032 3037 3041 3045 3050 3055 3059 3063 3067 3070 3073 3076 3079 3082 3086 3089 3092 3095 3096 3098 3101 3105 3108 3111 3113 3115 3117 3119 3121 3124 3127 3130 3131 3133 3136 3138 3140 3141 3143 3145 3146 3148 3150 3152 3154 3156 3158 3159 3161 3162 3163 3165 3167 3168 3169 3170 3171 3172 3172 3172 3173 3174 3171 3171 3172 3172 3172 3172 3172 3173 3173 3174 3175 3175 3176 3176 3177 3178 3178
2998 3002 3007 3011 3014 3017 3019 3022 3027 3032 3037 3041 3045 3050 3054 3059 3063 3067 3070 3073 3075 3078 3081 3084 3087 3090 3093 3096 3097 3101 3105 3107 3110 3112 3114 3116 3118 3120 3123 3125 3128 3130 3132 3135 3137 3139 3140 3142 3143 3145 3147 3148 3150 3152 3154 3157 3158 3160 3161 3162 3164 3165 3166 3167 3168 3170 3171 3171 3170 3172 3172 3170 3169 3170 3169 3169 3169 3169 3170 3170 3171 3172 3172 3173 3174 3174 3175 3175
2996 3001 3005 3009 3012 3015 3017 3021 3026 3030 3035 3040 3045 3049 3054 3058 3062 3066 3070 3074 3075 3076 3080 3083 3085 3088 3092 3094 3097 3099 3102 3105 3108 3111 3113 3115 3117 3119 3121 3123 3125 3128 3131 3134 3135 3136 3137 3140 3142 3144 3146 3148 3149 3151 3153 3155 3157 3158 3159 3161 3163 3164 3165 3166 3167 3168 3169 3169 3169 3170 3171 3170 3169 3168 3168 3167 3167 3167 3168 3168 3169 3169 3170 3170 3171 3171 3172 3173
2995 2999 3003 3008 3011 3014 3019 3023 3026 3029 3035 3040 3044 3049 3054 3058 3062 3065 3068 3072 3073 3074 3078 3082 3084 3087 3090 3093 3096 3098 3100 3103 3106 3108 3111 3114 3115 3118 3120 3122 3125 3127 3129 3131 3132 3133 3136 3138 3141 3143 3144 3146 3148 3150 3152 3154 3156 3157 3158 3160 3162 3163 3165 3165 3166 3167 3168 3169 3169 3168 3169 3169 3166 3166 3167 3166 3166 3166 3166 3166 3167 3167 3168 3168 3168 3169 3170 3170
2993 2998 3002 3006 3009 3014 3020 3024 3028 3032 3037 3041 3045 3050 3054 3058 3062 3065 3067 3068 3069 3071 3075 3080 3083 3085 3089 3092 3094 3096 3099 3101 3103 3106 3109 3112 3114 3116 3118 3121 3124 3127 3129 3130 3131 3133 3135 3137 3140 3142 3143 3144 3146 3149 3151 3153 3154 3156 3158 3159 3161 3162 3164 3165 3166 3166 3167 3168 3166 3166 3168 3167 3164 3163 3164 3164 3163 3164 3164 3164 3165 3165 3166 3166 3166 3167 3168 3168
2992 2996 3001 3004 3008 3013 3017 3022 3028 3033 3037 3041 3045 3049 3054 3058 3060 3064 3066 3064 3065 3069 3072 3076 3080 3083 3086 3089 3092 3095 3097 3100 3102 3104 3107 3110 3112 3115 3117 3120 3124 3127 3128 3130 3132 3133 3135 3136 3138 3140 3141 3143 3145 3148 3150 3152 3154 3155 3157 3158 3160 3162 3163 3164 3165 3166 3167 3165 3163 3164 3165 3166 3164 3160 3161 3161 3161 3161 3161 3162 3163 3163 3163 3164 3164 3165 3166 3166
2990 2995 2999 3003 3007 3012 3016 3021 3026 3030 3035 3039 3044 3048 3053 3057 3059 3061 3062 3061 3063 3066 3069 3073 3077 3081 3084 3086 3089 3092 3095 3098 3100 3103 3105 3107 3110 3112 3115 3117 3121 3124 3127 3128 3130 3132 3134 3135 3136 3137 3139 3141 3144 3146 3148 3151 3152 3154 3155 3157 3159 3161 3163 3164 3164 3166 3165 3162 3161 3162 3163 3165 3163 3159 3158 3158 3158 3158 3159 3160 3160 3160 3161 3161 3162 3163 3164 3165
2989 2993 2997 3002 3006 3011 3016 3021 3024 3028 3033 3038 3042 3046 3049 3054 3056 3056 3056 3058 3061 3063 3065 3069 3073 3077 3081 3085 3088 3090 3093 3096 3099 3101 3103 3105 3108 3109 3111 3113 3115 3119 3123 3125 3127 3130 3132 3133 3134 3136 3138 3140 3142 3144 3147 3149 3151 3153 3154 3156 3158 3161 3163 3163 3163 3164 3162 3159 3160 3161 3162 3162 3159 3157 3157 3157 3156 3156 3157 3157 3158 3158 3158 3159 3160 3161 3162 3163
2987 2991 2995 3000 3005 3011 3015 3019 3023 3028 3032 3036 3040 3044 3047 3049 3050 3050 3051 3055 3057 3060 3063 3067 3071 3075 3079 3082 3085 3088 3092 3094 3097 3099 3102 3104 3107 3109 3111 3112 3113 3115 3117 3121 3125 3128 3131 3133 3133 3135 3136 3138 3140 3141 3143 3145 3148 3150 3151 3153 3154 3157 3160 3161 3161 3162 3160 3158 3159 3160 3161 3159 3155 3155 3156 3155 3154 3155 3155 3155 3156 3156 3157 3157 3158 3160 3160 3162
2985 2989 2994 2998 3004 3009 3014 3018 3022 3026 3031 3035 3038 3042 3045 3045 3044 3045 3049 3051 3054 3058 3062 3066 3069 3074 3078 3080 3083 3086 3089 3092 3095 3097 3100 3103 3105 3107 3109 3111 3113 3114 3115 3119 3122 3124 3127 3129 3130 3132 3134 3135 3137 3139 3140 3142 3145 3147 3148 3150 3150 3151 3154 3155 3156 3157 3155 3156 3158 3160 3160 3155 3152 3153 3153 3152 3153 3153 3153 3154 3154 3155 3155 3156 3157 3158 3159 3160
2984 2988 2992 2997 3002 3007 3012 3016 3020 3024 3029 3032 3036 3039 3039 3038 3038 3041 3045 3048 3052 3055 3060 3065 3069 3072 3076 3079 3082 3085 3087 3090 3093 3096 3098 3100 3101 3103 3105 3107 3110 3112 3114 3116 3119 3122 3124 3125 3126 3129 3131 3133 3135 3137 3140 3142 3144 3145 3147 3149 3149 3149 3150 3151 3153 3153 3154 3155 3156 3156 3154 3150 3150 3151 3151 3151 3151 3151 3152 3152 3153 3153 3154 3155 3156 3157 3158 3159
2982 2986 2991 2996 3000 3005 3009 3013 3018 3023 3026 3030 3033 3034 3032 3031 3034 3038 3041 3045 3049 3052 3056 3063 3067 3070 3072 3076 3079 3082 3085 3088 3091 3094 3096 3098 3100 3101 3103 3105 3107 3110 3111 3114 3116 3119 3122 3124 3125 3128 3130 3132 3134 3136 3138 3141 3142 3143 3145 3145 3146 3147 3149 3150 3152 3153 3154 3154 3152 3151 3150 3148 3150 3150 3149 3149 3149 3150 3151 3151 3152 3153 3153 3154 3155 3156 3157 3158
2980 2985 2989 2994 2999 3004 3008 3012 3016 3020 3024 3027 3029 3028 3027 3029 3033 3037 3040 3044 3048 3052 3054 3058 3063 3066 3068 3071 3075 3079 3082 3086 3089 3091 3093 3096 3097 3098 3100 3103 3105 3108 3110 3112 3114 3116 3118 3121 3123 3126 3128 3130 3132 3134 3137 3138 3139 3141 3141 3142 3144 3147 3149 3149 3152 3154 3155 3153 3150 3148 3147 3147 3147 3147 3146 3147 3148 3149 3150 3150 3150 3151 3151 3153 3154 3155 3156 3157
2979 2983 2988 2992 2997 3002 3006 3010 3014 3018 3022 3025 3025 3024 3025 3029 3033 3036 3039 3042 3047 3051 3053 3055 3059 3063 3065 3068 3071 3075 3079 3082 3085 3088 3090 3092 3093 3094 3097 3100 3102 3106 3109 3111 3113 3115 3117 3119 3122 3124 3125 3128 3130 3132 3134 3135 3137 3138 3138 3140 3144 3146 3146 3147 3149 3151 3152 3151 3148 3145 3145 3144 3143 3143 3144 3145 3146 3147 3147 3148 3148 3149 3150 3151 3152 3153 3154 3154
2978 2982 2987 2991 2996 3000 3004 3008 3012 3016 3019 3020 3020 3021 3024 3028 3031 3034 3038 3041 3045 3048 3051 3053 3056 3060 3063 3066 3069 3072 3076 3078 3081 3084 3086 3088 3090 3091 3094 3097 3100 3103 3106 3109 3111 3113 3115 3117 3120 3122 3124 3126 3128 3130 3131 3131 3133 3136 3138 3140 3142 3143 3143 3144 3145 3145 3145 3147 3146 3144 3143 3140 3138 3140 3143 3144 3145 3145 3145 3145 3146 3147 3148 3150 3151 3151 3152 3152
2977 2980 2985 2990 2995 2999 3003 3007 3010 3013 3015 3015 3016 3019 3022 3026 3029 3033 3036 3040 3043 3045 3048 3051 3053 3056 3060 3063 3067 3070 3073 3076 3078 3081 3083 3085 3087 3089 3092 3095 3097 3100 3104 3107 3110 3112 3114 3116 3118 3120 3122 3124 3125 3126 3126 3128 3130 3132 3134 3136 3138 3139 3141 3142 3142 3142 3142 3143 3143 3143 3140 3136 3136 3139 3140 3142 3143 3144 3144 3144 3145 3146 3147 3148 3149 3150 3150 3151
2975 2979 2983 2988 2993 2997 3001 3004 3007 3010 3011 3011 3014 3017 3020 3024 3028 3032 3035 3038 3041 3043 3046 3049 3051 3053 3056 3059 3063 3067 3070 3073 3076 3079 3080 3082 3084 3087 3089 3092 3095 3098 3101 3104 3106 3109 3112 3114 3116 3118 3119 3121 3121 3122 3124 3127 3129 3130 3130 3132 3133 3135 3137 3138 3139 3139 3140 3140 3141 3141 3138 3133 3135 3137 3138 3139 3141 3142 3143 3144 3144 3144 3145 3146 3147 3148 3149 3150
2973 2976 2981 2986 2990 2995 2999 3001 3004 3006 3007 3008 3012 3015 3019 3023 3027 3030 3034 3037 3039 3041 3044 3047 3049 3052 3054 3056 3059 3063 3067 3070 3073 3075 3077 3079 3082 3084 3087 3090 3093 3096 3099 3101 3103 3106 3109 3112 3114 3115 3117 3118 3120 3121 3123 3124 3127 3128 3129 3130 3132 3133 3134 3134 3134 3134 3137 3138 3139 3140 3138 3132 3133 3135 3136 3137 3139 3139 3141 3142 3142 3143 3143 3144 3145 3146 3147 3148
2970 2974 2979 2983 2987 2992 2996 2998 3001 3002 3003 3005 3010 3014 3017 3021 3025 3028 3031 3035 3037 3039 3042 3045 3047 3050 3052 3055 3057 3060 3064 3067 3069 3072 3075 3077 3080 3083 3085 3087 3090 3093 3096 3098 3101 3104 3107 3110 3111 3114 3116 3117 3118 3120 3121 3123 3125 3126 3126 3127 3129 3130 3130 3131 3132 3132 3135 3136 3137 3140 3137 3130 3129 3133 3133 3135 3136 3137 3138 3139 3140 3141 3142 3143 3144 3144 3145 3146
2969 2973 2977 2980 2985 2990 2992 2993 2995 2997 2999 3003 3008 3011 3015 3019 3023 3026 3029 3032 3035 3037 3040 3043 3045 3048 3050 3053 3056 3058 3062 3064 3066 3069 3073 3075 3077 3080 3083 3085 3087 3090 3092 3095 3097 3100 3103 3105 3108 3112 3116 3118 3120 3120 3119 3120 3120 3120 3121 3123 3125 3126 3128 3130 3131 3132 3133 3132 3133 3136 3132 3126 3127 3130 3131 3133 3134 3134 3135 3137 3138 3139 3140 3141 3142 3142 3143 3143
2968 2971 2974 2978 2982 2986 2988 2990 2992 2993 2995 2999 3004 3008 3012 3017 3021 3024 3028 3030 3033 3035 3038 3040 3043 3046 3049 3052 3055 3057 3060 3062 3064 3066 3069 3072 3075 3078 3080 3082 3085 3088 3090 3093 3095 3097 3099 3100 3102 3105 3109 3112 3113 3113 3112 3112 3114 3115 3117 3119 3121 3123 3125 3127 3129 3130 3130 3128 3129 3130 3127 3124 3125 3127 3129 3131 3132 3132 3134 3135 3136 3137 3138 3138 3139 3140 3140 3141
2966 2969 2971 2975 2980 2983 2985 2988 2991 2992 2993 2997 3002 3006 3009 3014 3018 3022 3025 3028 3031 3034 3036 3039 3041 3044 3047 3049 3052 3055 3057 3060 3061 3063 3065 3068 3071 3074 3077 3079 3082 3085 3088 3090 3093 3095 3097 3097 3098 3099 3100 3101 3102 3103 3104 3106 3109 3111 3112 3114 3116 3118 3121 3124 3126 3126 3125 3125 3125 3124 3123 3123 3123 3125 3127 3129 3130 3131 3132 3133 3134 3135 3135 3136 3137 3137 3138 3139
2963 2966 2968 2971 2976 2979 2981 2984 2988 2989 2992 2995 2999 3003 3007 3011 3015 3019 3022 3025 3028 3031 3034 3036 3038 3041 3043 3046 3049 3052 3054 3057 3058 3060 3062 3064 3067 3070 3074 3076 3079 3082 3085 3088 3090 3092 3094 3095 3096 3097 3098 3099 3100 3102 3103 3104 3105 3107 3108 3110 3112 3115 3117 3120 3121 3120 3121 3123 3120 3118 3120 3121 3120 3122 3125 3127 3128 3130 3130 3131 3132 3132 3132 3133 3134 3134 3135 3136
2960 2963 2965 2968 2971 2974 2977 2980 2984 2986 2990 2995 2998 3001 3004 3008 3012 3015 3019 3022 3025 3028 3031 3033 3035 3038 3040 3043 3046 3049 3052 3054 3055 3057 3059 3061 3064 3067 3070 3073 3076 3079 3082 3085 3087 3089 3091 3091 3093 3094 3096 3098 3099 3101 3102 3103 3104 3105 3107 3107 3109 3111 3113 3114 3115 3115 3117 3117 3114 3114 3117 3117 3116 3119 3123 3124 3126 3127 3127 3128 3129 3129 3129 3130 3131 3132 3133 3134
2957 2960 2963 2966 2969 2971 2974 2977 2981 2984 2988 2993 2996 2999 3001 3005 3009 3012 3016 3019 3022 3025 3028 3030 3032 3035 3038 3041 3044 3046 3048 3049 3051 3053 3056 3058 3061 3063 3066 3069 3072 3075 3078 3081 3083 3086 3087 3088 3090 3092 3094 3095 3096 3098 3099 3100 3101 3103 3104 3105 3107 3108 3109 3110 3111 3112 3112 3111 3111 3112 3113 3112 3113 3117 3120 3122 3123 3124 3124 3125 3125 3126 3127 3128 3129 3130 3130 3131
2956 2958 2960 2964 2967 2969 2973 2977 2980 2983 2987 2990 2993 2996 2999 3003 3006 3010 3013 3016 3019 3021 3024 3027 3030 3033 3036 3039 3041 3043 3045 3047 3049 3051 3054 3056 3057 3060 3062 3064 3067 3071 3074 3077 3080 3082 3084 3086 3087 3090 3091 3092 3093 3095 3096 3096 3098 3099 3100 3102 3104 3105 3106 3106 3106 3107 3107 3107 3108 3110 3109 3107 3108 3113 3117 3119 3120 3120 3121 3122 3122 3123 3124 3125 3126 3126 3127 3127
2955 2957 2959 2962 2965 2968 2971 2975 2978 2981 2984 2987 2990 2993 2996 3000 3003 3007 3010 3013 3017 3020 3022 3025 3028 3031 3034 3036 3038 3040 3043 3046 3048 3050 3053 3054 3056 3059 3060 3062 3064 3067 3070 3073 3076 3078 3080 3082 3084 3087 3088 3087 3089 3091 3092 3092 3094 3095 3096 3098 3099 3099 3099 3098 3098 3100 3102 3102 3105 3107 3105 3101 3102 3108 3113 3115 3116 3116 3117 3118 3119 3120 3121 3121 3122 3122 3123 3124
2954 2956 2959 2961 2964 2966 2969 2972 2976 2979 2981 2983 2986 2989 2993 2997 3001 3005 3008 3011 3015 3018 3021 3024 3027 3029 3032 3034 3036 3038 3042 3044 3046 3048 3051 3052 3055 3057 3059 3060 3062 3064 3066 3069 3071 3073 3076 3077 3079 3082 3083 3083 3085 3086 3088 3090 3092 3089 3088 3090 3091 3090 3091 3092 3094 3096 3098 3099 3101 3100 3099 3098 3100 3105 3109 3111 3112 3113 3113 3114 3116 3116 3117 3117 3118 3119 3120 3120